When you browse on this site, cookies collect data to enhance your experience and personalize the content and advertising you see.
Visit our Privacy Policy to learn more. By continuing to use the site, you agree to this use of cookies and data.
  • In Hungary
  • List of Countries
  • For 7 days
  • Water Temperature
  • Satellite Maps
  • Weather Map
  • News
  • Weather Widgets
  • user-avatar
    Login

    Hourly Weather Ans

    Today, 20 January, Sunday

    Time Temperature Precipitation Wind Pressure Humidity
    00:00 -4°C° 0 mm 2 mps 745 mmHg 73%
    01:00 -4°C° 0 mm 2 mps 745 mmHg 72%
    02:00 -4°C° 0 mm 2 mps 745 mmHg 71%
    03:00 -4°C° 0 mm 2 mps 745 mmHg 71%
    04:00 -2°C° 0 mm 1 mps 745 mmHg 70%
    05:00 -2°C° 0 mm 1 mps 745 mmHg 69%
    06:00 -3°C° 0 mm 1 mps 746 mmHg 68%
    07:00 -2°C° 0 mm 1 mps 746 mmHg 65%
    08:00 -2°C° 0 mm 1 mps 746 mmHg 62%
    09:00 -3°C° 0 mm 2 mps 747 mmHg 60%
    10:00 -2°C° 0 mm 2 mps 747 mmHg 55%
    11:00 -1°C° 0 mm 2 mps 747 mmHg 51%
    12:00 +2°C° 0 mm 2 mps 748 mmHg 47%
    13:00 +1°C° 0 mm 2 mps 748 mmHg 49%
    14:00 +1°C° 0 mm 2 mps 748 mmHg 52%
    15:00 +1°C° 0 mm 2 mps 748 mmHg 55%
    16:00 -1°C° 0 mm 2 mps 748 mmHg 59%
    17:00 -2°C° 0 mm 2 mps 748 mmHg 64%
    18:00 -4°C° 0 mm 2 mps 749 mmHg 68%
    19:00 -4°C° 0 mm 2 mps 749 mmHg 68%
    20:00 -2°C° 0 mm 1 mps 750 mmHg 67%
    21:00 -2°C° 0 mm 1 mps 751 mmHg 67%
    22:00 -2°C° 0 mm 1 mps 751 mmHg 66%
    23:00 -2°C° 0 mm 1 mps 751 mmHg 65%

    Tomorrow, 21 January, Monday

    Time Temperature Precipitation Wind Pressure Humidity
    00:00 -2°C° 0 mm 1 mps 752 mmHg 65%
    01:00 -3°C° 0 mm 0 mps 752 mmHg 64%
    02:00 -3°C° 0 mm 0 mps 752 mmHg 63%
    03:00 -3°C° 0 mm 0 mps 752 mmHg 62%
    04:00 -3°C° 0 mm 0 mps 752 mmHg 61%
    05:00 -3°C° 0 mm 0 mps 752 mmHg 61%
    06:00 -3°C° 0 mm 0 mps 752 mmHg 60%
    07:00 -3°C° 0 mm 0 mps 752 mmHg 57%
    08:00 -2°C° 0 mm 0 mps 753 mmHg 55%
    09:00 -2°C° 0 mm 0 mps 753 mmHg 52%
    10:00 -1°C° 0 mm 0 mps 753 mmHg 48%
    11:00 0°C° 0 mm 0 mps 752 mmHg 44%
    12:00 +2°C° 0 mm 0 mps 752 mmHg 40%
    13:00 +1°C° 0 mm 0 mps 752 mmHg 43%
    14:00 +2°C° 0 mm 1 mps 751 mmHg 45%
    15:00 +2°C° 0 mm 1 mps 751 mmHg 48%
    16:00 +1°C° 0 mm 1 mps 751 mmHg 50%
    17:00 0°C° 0 mm 1 mps 750 mmHg 52%
    18:00 -1°C° 0 mm 1 mps 750 mmHg 54%
    19:00 -3°C° 0 mm 2 mps 750 mmHg 54%
    20:00 -3°C° 0 mm 2 mps 749 mmHg 54%
    21:00 -3°C° 0 mm 2 mps 749 mmHg 54%
    22:00 -4°C° 0 mm 3 mps 748 mmHg 54%
    23:00 -4°C° 0 mm 3 mps 747 mmHg 53%

    Day after tomorrow, 22 January, Tuesday

    Time Temperature Precipitation Wind Pressure Humidity
    00:00 -4°C° 0 mm 3 mps 747 mmHg 53%
    01:00 -4°C° 0 mm 4 mps 746 mmHg 53%
    02:00 -4°C° 0 mm 4 mps 745 mmHg 53%
    03:00 -5°C° 0 mm 5 mps 744 mmHg 52%
    04:00 -5°C° 0 mm 5 mps 743 mmHg 52%
    05:00 -4°C° 0 mm 6 mps 742 mmHg 53%
    06:00 -4°C° 0 mm 6 mps 741 mmHg 53%
    07:00 -4°C° 0 mm 7 mps 740 mmHg 50%
    08:00 -3°C° 0 mm 7 mps 739 mmHg 47%
    09:00 -2°C° 0 mm 7 mps 739 mmHg 44%
    10:00 -2°C° 0.1 mm 7 mps 738 mmHg 49%
    11:00 -2°C° 0.1 mm 7 mps 737 mmHg 53%
    12:00 -2°C° 0.1 mm 7 mps 737 mmHg 57%
    13:00 -3°C° 0.1 mm 6 mps 736 mmHg 63%
    14:00 -3°C° 0.1 mm 6 mps 736 mmHg 69%
    15:00 -2°C° 0.1 mm 5 mps 735 mmHg 75%
    16:00 -2°C° 0.3 mm 5 mps 735 mmHg 79%
    17:00 -2°C° 0.3 mm 4 mps 735 mmHg 84%
    18:00 -2°C° 0.3 mm 3 mps 735 mmHg 89%
    19:00 -2°C° 0.3 mm 3 mps 735 mmHg 90%
    20:00 -2°C° 0.3 mm 2 mps 735 mmHg 92%
    21:00 -2°C° 0.3 mm 2 mps 734 mmHg 94%
    22:00 -2°C° 0.3 mm 2 mps 734 mmHg 94%
    23:00 -2°C° 0.3 mm 2 mps 734 mmHg 95%

    23 January, Wednesday

    Time Temperature Precipitation Wind Pressure Humidity
    00:00 -2°C° 0.3 mm 2 mps 734 mmHg 96%
    01:00 -2°C° 0.2 mm 2 mps 734 mmHg 95%
    02:00 -2°C° 0.2 mm 2 mps 734 mmHg 95%
    03:00 -2°C° 0.2 mm 2 mps 734 mmHg 95%
    04:00 -3°C° 0.1 mm 2 mps 734 mmHg 95%
    05:00 -3°C° 0.1 mm 2 mps 734 mmHg 95%
    06:00 -4°C° 0.1 mm 2 mps 734 mmHg 95%
    07:00 -1°C° 0 mm 1 mps 735 mmHg 93%
    08:00 -1°C° 0 mm 1 mps 735 mmHg 92%
    09:00 -1°C° 0 mm 1 mps 735 mmHg 91%
    10:00 0°C° 0 mm 1 mps 736 mmHg 89%
    11:00 +1°C° 0 mm 1 mps 736 mmHg 86%
    12:00 +1°C° 0 mm 2 mps 736 mmHg 84%
    13:00 +1°C° 0 mm 2 mps 736 mmHg 86%
    14:00 +1°C° 0 mm 2 mps 737 mmHg 88%
    15:00 +1°C° 0 mm 2 mps 737 mmHg 91%
    16:00 +1°C° 0 mm 1 mps 738 mmHg 92%
    17:00 0°C° 0 mm 1 mps 738 mmHg 94%
    18:00 -1°C° 0 mm 1 mps 739 mmHg 95%
    19:00 -1°C° 0 mm 1 mps 739 mmHg 96%
    20:00 0°C° 0 mm 1 mps 740 mmHg 96%
    21:00 0°C° 0 mm 1 mps 740 mmHg 97%
    22:00 -2°C° 0 mm 2 mps 740 mmHg 96%
    23:00 -2°C° 0 mm 2 mps 741 mmHg 96%

    24 January, Thursday

    Time Temperature Precipitation Wind Pressure Humidity
    00:00 -2°C° 0 mm 2 mps 741 mmHg 96%
    01:00 -3°C° 0 mm 2 mps 741 mmHg 95%
    02:00 -3°C° 0 mm 2 mps 741 mmHg 95%
    03:00 -3°C° 0 mm 2 mps 741 mmHg 95%
    04:00 -3°C° 0 mm 2 mps 741 mmHg 95%
    05:00 -3°C° 0 mm 2 mps 742 mmHg 95%
    06:00 -3°C° 0 mm 2 mps 742 mmHg 94%
    07:00 -3°C° 0 mm 2 mps 742 mmHg 93%
    08:00 -2°C° 0 mm 2 mps 742 mmHg 92%
    09:00 -2°C° 0 mm 2 mps 743 mmHg 90%
    10:00 -1°C° 0 mm 2 mps 743 mmHg 87%
    11:00 -1°C° 0 mm 2 mps 743 mmHg 84%
    12:00 +1°C° 0 mm 2 mps 743 mmHg 81%
    13:00 +1°C° 0 mm 2 mps 743 mmHg 83%
    14:00 +2°C° 0 mm 1 mps 742 mmHg 84%
    15:00 +1°C° 0 mm 1 mps 742 mmHg 85%
    16:00 0°C° 0 mm 1 mps 743 mmHg 87%
    17:00 0°C° 0 mm 1 mps 743 mmHg 88%
    18:00 -2°C° 0 mm 0 mps 744 mmHg 90%
    19:00 -3°C° 0 mm 0 mps 745 mmHg 90%
    20:00 -3°C° 0 mm 0 mps 745 mmHg 89%
    21:00 -3°C° 0 mm 0 mps 746 mmHg 89%
    22:00 -3°C° 0 mm 0 mps 746 mmHg 89%
    23:00 -3°C° 0 mm 0 mps 746 mmHg 90%

    25 January, Friday

    Time Temperature Precipitation Wind Pressure Humidity
    00:00 -3°C° 0 mm 0 mps 747 mmHg 90%
    01:00 -3°C° 0 mm 0 mps 747 mmHg 90%
    02:00 -3°C° 0 mm 0 mps 747 mmHg 91%
    03:00 -4°C° 0 mm 0 mps 748 mmHg 91%
    04:00 -4°C° 0 mm 0 mps 748 mmHg 92%
    05:00 -4°C° 0 mm 0 mps 749 mmHg 93%
    06:00 -4°C° 0 mm 0 mps 749 mmHg 94%
    07:00 -2°C° 0 mm 1 mps 750 mmHg 93%
    08:00 -2°C° 0 mm 1 mps 750 mmHg 92%
    09:00 -1°C° 0 mm 1 mps 751 mmHg 91%
    10:00 0°C° 0 mm 1 mps 751 mmHg 88%
    11:00 +1°C° 0 mm 1 mps 751 mmHg 85%
    12:00 +2°C° 0 mm 1 mps 752 mmHg 82%
    13:00 +2°C° 0 mm 1 mps 752 mmHg 84%
    14:00 +2°C° 0 mm 1 mps 752 mmHg 87%
    15:00 +1°C° 0 mm 1 mps 752 mmHg 89%
    16:00 +1°C° 0 mm 1 mps 752 mmHg 91%
    17:00 0°C° 0 mm 1 mps 753 mmHg 92%
    18:00 -1°C° 0 mm 1 mps 753 mmHg 94%
    19:00 -1°C° 0 mm 1 mps 753 mmHg 93%
    20:00 -2°C° 0 mm 1 mps 753 mmHg 93%
    21:00 -2°C° 0 mm 1 mps 754 mmHg 92%
    22:00 -4°C° 0 mm 2 mps 753 mmHg 92%
    23:00 -4°C° 0 mm 2 mps 753 mmHg 91%
    Show more